Waarnemingen

Advertentie
Mijn weer
Ponferrada, Spanje (8053): temperatuur & dauwpunt: 21.04.2018 08:00:00 - 27.04.2018 08:00:00 (CEST)Ponferrada, Spanje (8053): windsnelheid: 21.04.2018 08:00:00 - 27.04.2018 08:00:00 (CEST)Ponferrada, Spanje (8053): windrichting: 21.04.2018 08:00:00 - 27.04.2018 08:00:00 (CEST)Ponferrada, Spanje (8053): luchtdruk: 21.04.2018 08:00:00 - 27.04.2018 08:00:00 (CEST)Ponferrada, Spanje (8053): zicht: 21.04.2018 08:00:00 - 27.04.2018 08:00:00 (CEST)Ponferrada, Spanje (8053): neerslag: 21.04.2018 08:00:00 - 27.04.2018 08:00:00 (CEST)
Datum & Tijd tt [°C] td [°C] ff [km/u] ff [kn] dd ppp [hPa] vv [km] rr [mm]
27.04.2018 08:00:00 10,3 4,6 4 2 NW 1015,9 20 -
27.04.2018 07:00:00 9,5 3,9 4 2 OZO 1015,6 20 0,0
27.04.2018 06:00:00 11,6 5,5 5 3 WNW 1015,4 20 0,0
27.04.2018 05:00:00 12,5 7,0 9 5 WNW 1015,4 20 -
27.04.2018 04:00:00 13,1 6,0 8 4 NW 1015,4 20 0,0
27.04.2018 03:00:00 13,5 5,1 2 1 N 1015,7 20 0,0
27.04.2018 02:00:00 14,3 5,9 2 1 WNW 1015,6 20 -
27.04.2018 01:00:00 15,1 6,4 4 2 N 1015,4 20 0,0
27.04.2018 00:00:00 16,7 6,5 9 5 WNW 1014,7 20 0,0
26.04.2018 23:00:00 17,5 7,0 4 2 N 1014,0 20 -
26.04.2018 22:00:00 19,9 7,6 4 2 WNW 1013,1 20 0,0
26.04.2018 21:00:00 22,0 9,2 9 5 W 1011,8 20 0,0
26.04.2018 20:00:00 24,7 9,4 9 5 WZW 1010,9 20 -
26.04.2018 19:00:00 25,9 9,3 11 6 W 1010,9 20 0,0
26.04.2018 18:00:00 25,5 7,6 8 4 WZW 1011,6 20 0,0
26.04.2018 17:00:00 24,2 6,9 4 2 NW 1012,8 20 -
26.04.2018 16:00:00 22,7 6,4 8 4 ZW 1014,3 20 0,0
26.04.2018 15:00:00 20,3 8,9 4 2 WNW 1015,8 20 0,0
26.04.2018 14:00:00 18,2 9,0 4 2 ZW 1017,3 20 -
26.04.2018 13:00:00 15,3 8,3 8 4 W 1019,0 20 0,0
26.04.2018 12:00:00 13,4 8,0 4 2 OZO 1020,4 20 0,0
26.04.2018 11:00:00 10,5 6,8 4 2 WZW 1021,9 20 -
26.04.2018 10:00:00 9,1 6,4 4 2 WNW 1022,7 20 0,0
26.04.2018 09:00:00 8,0 5,6 2 1 WNW 1023,0 20 0,0
26.04.2018 08:00:00 7,8 5,9 2 1 NO 1022,9 20 -
26.04.2018 07:00:00 7,4 5,7 5 3 ZZO 1022,6 20 0,0
26.04.2018 06:00:00 8,1 5,6 4 2 WNW 1022,8 20 0,0
26.04.2018 05:00:00 8,5 6,1 4 2 ZZO 1022,6 20 -
26.04.2018 04:00:00 9,2 6,3 2 1 ZO 1022,7 20 0,0
26.04.2018 03:00:00 10,2 6,0 4 2 WNW 1022,9 20 0,0
26.04.2018 02:00:00 11,1 6,4 8 4 ZW 1023,0 20 -
26.04.2018 01:00:00 11,8 6,5 4 2 ZW 1022,6 20 0,0
26.04.2018 00:00:00 13,2 7,0 5 3 WZW 1021,8 20 0,0
25.04.2018 23:00:00 14,4 7,7 5 3 ZZW 1021,3 20 -
25.04.2018 22:00:00 15,9 8,6 5 3 WZW 1019,9 20 0,0
25.04.2018 21:00:00 17,5 9,1 9 5 W 1018,6 20 0,0
25.04.2018 20:00:00 20,2 9,4 13 7 WNW 1017,5 20 -
25.04.2018 19:00:00 22,6 9,7 18 10 WNW 1016,5 20 0,0
25.04.2018 18:00:00 24,7 10,2 16 9 WNW 1015,2 20 0,0
25.04.2018 17:00:00 25,1 10,9 15 8 W 1015,3 20 -
25.04.2018 16:00:00 25,0 11,2 9 5 W 1015,8 20 0,0
25.04.2018 15:00:00 22,7 10,2 11 6 WNW 1017,1 20 0,0
25.04.2018 14:00:00 20,8 11,1 8 4 W 1018,3 20 -
25.04.2018 13:00:00 19,1 10,9 8 4 WNW 1019,4 20 0,0
25.04.2018 12:00:00 17,2 11,0 8 4 W 1020,3 20 0,0
25.04.2018 11:00:00 15,3 10,5 5 3 WZW 1020,8 20 -
25.04.2018 10:00:00 13,7 10,3 5 3 WNW 1020,9 19 0,0
25.04.2018 09:00:00 12,1 9,8 5 3 W 1020,9 15 0,0
25.04.2018 08:00:00 11,8 9,7 2 1 NW 1020,1 18 -
25.04.2018 07:00:00 12,0 9,6 2 1 O 1019,6 19 0,0
25.04.2018 06:00:00 12,8 10,0 2 1 NW 1019,1 20 0,0
25.04.2018 05:00:00 13,3 9,7 2 1 ZZO 1018,5 20 -
25.04.2018 04:00:00 14,0 9,6 2 1 O 1018,2 20 0,0
25.04.2018 03:00:00 15,2 9,8 2 1 OZO 1018,0 20 0,0
25.04.2018 02:00:00 15,9 10,2 4 2 ZO 1017,9 20 -
25.04.2018 01:00:00 16,8 9,7 2 1 OZO 1017,5 20 0,0
25.04.2018 00:00:00 18,6 10,9 4 2 O 1016,9 20 0,0
24.04.2018 23:00:00 21,2 10,4 4 2 WZW 1016,4 20 -
24.04.2018 22:00:00 22,3 12,0 5 3 W 1015,5 20 0,0
24.04.2018 21:00:00 24,6 11,2 5 3 NNW 1013,8 20 0,0
24.04.2018 20:00:00 27,7 11,3 5 3 NNW 1011,9 20 -
24.04.2018 19:00:00 29,6 7,5 5 3 ZW 1011,3 20 0,0
24.04.2018 18:00:00 29,7 8,7 5 3 ZW 1011,5 20 0,0
24.04.2018 17:00:00 29,2 5,3 5 3 OZO 1012,1 20 -
24.04.2018 16:00:00 28,4 7,0 8 4 WNW 1013,1 19 0,0
24.04.2018 15:00:00 27,3 9,2 5 3 ZW 1013,8 19 0,0
24.04.2018 14:00:00 24,8 10,3 5 3 WNW 1015,3 20 -
24.04.2018 13:00:00 22,1 11,5 5 3 W 1016,6 20 0,0
24.04.2018 12:00:00 19,5 11,5 5 3 WNW 1017,7 19 0,0
24.04.2018 11:00:00 17,6 10,7 4 2 W 1018,3 20 -
24.04.2018 10:00:00 14,6 10,2 4 2 ZW 1019,5 20 0,0
24.04.2018 09:00:00 13,0 10,2 2 1 N 1019,6 20 0,0
24.04.2018 08:00:00 10,6 9,0 2 1 ZZO 1019,9 20 -
24.04.2018 07:00:00 11,1 9,0 2 1 N 1019,4 20 0,0
24.04.2018 06:00:00 11,7 9,3 2 1 ONO 1019,0 20 0,0
24.04.2018 05:00:00 12,8 9,6 4 2 ZZO 1018,6 20 -
24.04.2018 04:00:00 13,5 10,1 2 1 NNO 1018,5 20 0,0
24.04.2018 03:00:00 14,9 10,3 2 1 ONO 1018,5 20 0,0
24.04.2018 02:00:00 16,7 10,5 4 2 WZW 1018,1 20 -
24.04.2018 01:00:00 17,4 11,0 8 4 O 1018,0 20 0,0
24.04.2018 00:00:00 17,9 11,5 4 2 O 1018,0 20 0,0
23.04.2018 23:00:00 19,1 11,4 4 2 NW 1017,8 20 -
23.04.2018 22:00:00 20,3 11,2 2 1 NNW 1016,6 18 0,0
23.04.2018 21:00:00 21,7 11,1 5 3 WNW 1015,2 20 0,0
23.04.2018 20:00:00 24,8 9,5 5 3 Z 1013,5 20 -
23.04.2018 19:00:00 27,3 6,7 5 3 W 1012,5 20 0,0
23.04.2018 18:00:00 28,0 7,8 5 3 WNW 1012,3 20 0,0
23.04.2018 17:00:00 27,5 7,4 8 4 WNW 1013,0 20 -
23.04.2018 16:00:00 26,8 7,3 5 3 W 1013,9 20 0,0
23.04.2018 15:00:00 25,4 8,4 5 3 WZW 1014,8 20 0,0
23.04.2018 14:00:00 23,2 9,6 5 3 NW 1016,3 19 -
23.04.2018 13:00:00 20,7 11,1 4 2 ZW 1017,4 20 0,0
23.04.2018 12:00:00 18,1 11,4 5 3 WNW 1019,0 20 0,0
23.04.2018 11:00:00 15,7 10,0 4 2 ZW 1019,5 20 -
23.04.2018 10:00:00 13,4 9,6 4 2 ZW 1020,3 20 0,0
23.04.2018 09:00:00 11,6 9,3 2 1 WZW 1020,5 20 0,0
23.04.2018 08:00:00 9,5 8,1 2 1 N 1020,4 20 -
23.04.2018 07:00:00 9,9 8,2 4 2 ZO 1019,7 20 0,0
23.04.2018 06:00:00 10,5 8,6 2 1 NO 1019,4 20 0,0
23.04.2018 05:00:00 10,9 8,6 2 1 ONO 1019,0 20 -
23.04.2018 04:00:00 12,1 9,5 2 1 OZO 1018,1 20 0,0
23.04.2018 03:00:00 13,1 9,9 2 1 ZZO 1017,9 20 0,0
23.04.2018 02:00:00 14,7 10,1 4 2 ZW 1017,5 20 -
23.04.2018 01:00:00 15,2 10,2 5 3 ZO 1017,5 20 0,0
23.04.2018 00:00:00 15,2 11,0 4 2 ZO 1017,7 20 0,0
22.04.2018 23:00:00 16,2 12,0 4 2 Z 1016,6 20 -
22.04.2018 22:00:00 17,5 11,3 5 3 ONO 1015,4 20 0,0
22.04.2018 21:00:00 18,7 10,8 4 2 W 1014,0 20 0,0
22.04.2018 20:00:00 19,8 10,5 9 5 O 1013,4 20 -
22.04.2018 19:00:00 19,4 10,9 9 5 ZO 1013,5 20 0,0
22.04.2018 18:00:00 18,7 12,0 16 9 OZO 1013,5 20 0,2
22.04.2018 17:00:00 21,4 10,5 9 5 WZW 1013,3 18 -
22.04.2018 16:00:00 22,2 7,6 5 3 WNW 1013,4 19 0,0
22.04.2018 15:00:00 20,8 11,4 5 3 W 1014,1 20 0,0
22.04.2018 14:00:00 18,3 10,6 8 4 W 1014,9 20 -
22.04.2018 13:00:00 16,6 9,5 5 3 WNW 1015,9 20 0,0
22.04.2018 12:00:00 15,4 9,3 4 2 Z 1016,8 20 0,0
22.04.2018 11:00:00 13,3 9,2 2 1 W 1017,9 17 -
22.04.2018 10:00:00 11,7 9,3 4 2 WNW 1018,1 19 0,0
22.04.2018 09:00:00 11,2 8,9 2 1 ZZO 1017,9 20 0,0
22.04.2018 08:00:00 10,8 8,6 5 3 ZO 1017,6 20 -
22.04.2018 07:00:00 - - - - - - - -
22.04.2018 06:00:00 - - - - - - - -
22.04.2018 05:00:00 - - - - - - - -
22.04.2018 04:00:00 - - - - - - - -
22.04.2018 03:00:00 - - - - - - - -
22.04.2018 02:00:00 - - - - - - - -
22.04.2018 01:00:00 - - - - - - - -
22.04.2018 00:00:00 - - - - - - - -
21.04.2018 23:00:00 - - - - - - - -
21.04.2018 22:00:00 - - - - - - - -
21.04.2018 21:00:00 - - - - - - - -
21.04.2018 20:00:00 20,5 7,8 5 3 WNW 1015,1 20 -
21.04.2018 19:00:00 20,7 7,3 4 2 WNW 1015,1 20 0,0
21.04.2018 18:00:00 20,5 6,8 4 2 NW 1015,0 20 0,0
21.04.2018 17:00:00 19,8 8,2 8 4 O 1014,8 20 -
21.04.2018 16:00:00 19,4 8,1 13 7 O 1014,8 20 0,0
21.04.2018 15:00:00 20,1 7,8 11 6 OZO 1015,2 20 0,0
21.04.2018 14:00:00 19,9 9,5 4 2 WZW 1015,4 1,2 -
21.04.2018 13:00:00 18,5 9,6 5 3 WZW 1016,5 19 0,0
21.04.2018 12:00:00 16,5 8,9 4 2 WNW 1017,1 19 0,0
21.04.2018 11:00:00 15,3 8,3 4 2 WZW 1017,8 20 -
21.04.2018 10:00:00 13,9 8,1 4 2 W 1018,3 20 0,0
21.04.2018 09:00:00 11,8 7,1 4 2 NNW 1018,7 20 0,0
21.04.2018 08:00:00 10,2 6,5 2 1 NW 1018,4 20 -

tt = temperatuur
td = dauwpunt
ff = windsnelheid
dd = windrichting
ppp = luchtdruk
vv = zicht
rr = neerslag

Weerstations in de omgeving